Theta_e
308 308 308 308 308 309 309 310 310 309 309 311 311 312 313 314 303 294 290 300 305 315 315 298 297 294 297 294 294 298 289 286 289 291 292 297 295 298 302 302 300 307 307 308 304
307 307 307 307 308 308 308 309 308 309 308 308 309 311 312 315 294 288 299 307 309 312 300 295 293 293 290 292 292 290 286 287 291 292 290 291 291 292 294 293 293 294 297 301 302
305 305 306 307 307 307 307 308 308 307 307 307 308 309 311 310 290 288 302 305 306 305 300 297 293 293 290 291 290 289 284 289 289 290 288 289 289 291 290 288 291 292 295 296 297
304 305 305 305 306 307 310 309 311 310 307 306 307 309 306 296 283 288 301 302 303 297 298 295 291 288 287 287 288 285 287 287 289 289 288 287 289 288 289 290 294 294 294 294 294
304 304 304 304 306 310 313 312 311 308 306 306 308 309 291 281 282 291 299 294 290 293 292 293 288 287 284 286 286 284 285 287 288 287 287 288 286 287 288 292 293 293 293 293 294
303 303 303 304 307 311 312 312 310 308 309 309 309 298 284 276 288 288 288 289 288 289 289 292 290 291 286 285 284 284 286 285 286 285 286 284 285 286 288 289 289 290 291 292 292
302 302 302 304 307 311 311 312 311 311 310 306 301 289 283 279 286 286 287 287 287 287 288 291 290 286 285 283 284 285 281 283 283 283 282 284 284 283 285 286 285 286 288 290 292
302 301 302 303 308 306 306 306 311 306 305 302 298 286 278 288 287 286 286 286 288 290 290 290 288 284 280 281 281 278 278 275 280 279 281 281 278 281 283 283 282 283 285 287 290
302 301 301 301 304 305 303 302 301 300 298 295 285 281 277 288 283 284 284 284 286 287 285 286 284 277 277 273 273 272 269 271 273 278 277 276 272 280 282 281 280 281 281 282 282
302 301 301 300 302 303 303 304 298 293 289 288 286 279 280 278 282 283 285 285 283 283 280 278 276 273 273 271 266 267 267 269 269 273 274 273 273 276 281 281 278 280 279 279 279
301 301 300 299 301 301 294 287 282 280 281 277 277 277 279 282 283 282 284 281 280 279 272 274 271 267 268 270 271 269 268 266 269 274 272 271 271 277 279 280 278 279 278 279 278
301 299 299 298 299 298 289 283 282 281 275 280 279 279 281 281 276 280 284 276 275 271 273 271 267 271 274 274 271 270 267 266 270 274 273 271 271 277 279 279 280 279 278 278 278
301 298 298 297 296 289 284 283 287 283 275 277 279 278 279 280 275 276 280 277 272 271 270 268 270 274 273 270 270 268 268 267 267 271 273 271 270 275 278 279 280 280 280 279 278
301 298 297 294 288 283 281 285 287 284 268 274 276 277 279 279 274 280 280 276 273 269 270 269 272 273 271 269 271 267 271 270 269 268 265 271 264 270 275 276 277 278 278 278 278
300 298 295 293 282 281 283 286 287 283 262 274 275 281 279 275 275 276 280 277 271 271 270 268 269 270 268 270 272 269 272 271 270 268 267 269 265 270 274 272 274 277 278 278 278
299 297 292 285 282 282 285 285 284 271 261 266 274 274 274 275 275 276 276 277 275 272 272 270 273 271 270 273 273 274 271 271 270 268 260 268 266 265 271 272 274 277 277 278 278
298 294 288 286 279 284 285 281 270 265 269 264 268 274 272 271 272 272 271 269 265 262 264 269 270 271 273 269 272 271 266 260 260 258 260 267 265 266 274 276 276 275 276 277 278
296 293 287 284 283 284 281 274 263 260 260 272 272 271 269 270 270 270 269 265 268 266 262 262 263 269 272 270 265 269 264 259 256 259 260 267 264 268 275 276 277 277 276 277 277
293 280 280 281 283 280 277 263 264 264 269 270 270 265 261 269 267 267 265 262 265 265 259 258 263 270 273 272 269 265 262 267 256 262 259 264 266 271 275 274 274 274 275 275 276
281 277 278 281 281 278 269 264 262 273 274 272 265 266 257 258 263 263 264 264 268 272 266 265 259 269 271 271 271 266 269 260 260 250 252 261 262 264 270 271 273 273 273 274 275
277 274 278 280 279 272 265 257 267 276 275 272 268 261 265 261 262 258 263 268 267 271 271 261 261 265 269 264 265 265 263 264 263 260 256 256 260 263 269 272 272 272 274 273 274
275 270 279 279 271 253 257 264 276 274 274 274 271 270 266 266 261 260 261 266 271 270 267 267 261 257 263 267 269 265 262 263 256 256 261 261 259 271 271 273 273 273 274 274 275
269 270 279 278 265 256 262 269 274 272 273 271 271 272 270 268 260 267 268 272 272 270 264 265 259 254 261 262 265 260 267 268 264 263 258 254 260 271 273 270 272 273 273 274 276
269 270 272 270 269 266 261 265 267 275 273 273 270 271 269 267 269 260 268 273 274 274 277 274 258 258 260 262 259 257 261 267 260 254 259 261 264 269 270 270 270 273 273 273 273
269 262 262 261 264 260 265 268 269 268 270 273 270 267 263 258 262 263 268 269 272 275 274 269 258 256 263 265 265 264 262 263 263 264 258 266 265 268 269 268 271 273 274 274 275
268 266 261 258 264 262 265 266 269 270 268 266 264 269 267 261 265 263 265 267 267 266 265 263 256 255 255 265 265 262 264 264 265 265 265 265 265 271 272 272 270 273 274 274 275
275 271 269 267 260 262 263 269 271 271 272 272 269 269 268 270 269 268 271 272 270 266 266 261 257 254 253 261 261 256 261 263 264 260 264 262 267 271 269 271 271 272 273 274 275
Wind_Speed
18 17 17 17 16 15 13 11 10 8 6 5 5 3 4 4 12 11 16 14 17 21 15 7 5 6 3 3 3 3 4 3 6 4 6 4 6 5 3 6 4 2 5 8 10
18 18 18 18 17 17 15 14 12 8 4 3 2 2 3 3 4 17 18 26 24 21 7 6 5 5 3 2 2 4 4 9 4 2 6 9 2 5 2 6 17 15 9 10 9
17 17 17 16 16 16 17 16 14 9 5 2 1 1 1 1 7 5 26 28 25 19 4 2 1 2 3 2 2 2 5 1 3 4 7 10 14 2 5 4 8 12 18 11 15
19 19 19 17 16 16 14 11 11 7 5 2 1 1 6 3 1 5 29 27 23 13 3 3 3 3 3 2 3 1 3 4 6 9 7 10 12 12 10 10 14 14 13 9 16
20 20 19 17 17 17 12 9 7 5 3 4 3 2 5 10 4 13 27 22 11 6 4 3 5 2 3 1 4 2 4 7 7 10 9 11 9 17 18 16 12 14 14 16 18
20 21 20 20 18 17 15 12 11 12 10 6 7 8 8 9 6 11 14 10 7 5 5 5 2 3 4 3 3 4 5 9 8 13 7 18 12 1 11 20 20 20 20 19 18
20 20 20 20 17 13 18 17 15 13 17 16 16 7 18 5 3 9 7 4 5 4 3 5 5 9 3 3 5 4 5 3 10 14 8 19 4 8 17 29 24 22 22 21 19
19 21 19 20 14 14 13 14 12 15 9 12 8 6 7 0 3 16 10 4 8 4 4 7 8 11 7 7 6 7 6 7 5 20 8 9 5 21 31 26 30 27 21 21 23
19 20 18 14 13 11 18 19 7 10 12 2 9 7 4 9 11 10 7 6 7 5 13 11 9 7 10 5 5 12 5 6 14 16 15 16 15 18 27 25 23 25 24 22 21
19 19 16 12 13 10 8 8 23 12 10 3 5 7 8 8 7 10 8 7 6 3 9 13 9 6 9 10 3 5 5 6 11 9 9 14 11 21 19 19 14 16 19 19 19
18 18 15 13 10 12 6 5 7 11 15 7 2 5 4 9 1 13 8 6 7 10 7 9 13 11 5 6 5 4 4 11 10 4 14 7 13 8 12 14 16 15 16 21 20
18 19 14 6 14 5 6 6 1 6 10 8 5 4 2 4 7 24 13 10 10 7 3 7 12 4 2 3 3 2 5 6 13 9 11 5 11 2 9 11 11 14 17 18 23
18 18 16 6 4 8 6 3 4 1 8 5 3 4 5 6 7 14 9 4 7 13 11 8 4 4 4 3 11 3 1 5 9 14 4 5 2 5 6 11 15 16 14 16 18
17 17 15 5 8 1 4 5 2 1 8 10 8 7 6 4 6 5 5 2 6 4 3 7 2 3 3 3 8 4 3 12 15 7 3 4 5 4 6 10 16 18 17 16 17
15 14 10 11 6 4 1 3 0 3 6 5 5 4 5 7 6 11 6 7 5 4 2 3 2 3 3 5 8 8 14 12 9 3 1 3 1 3 4 12 18 18 17 15 15
12 9 7 5 4 1 4 1 3 10 5 2 3 5 4 7 5 7 8 7 2 4 9 3 1 1 2 8 3 14 5 1 2 3 3 4 4 4 4 7 15 15 15 15 16
10 4 6 2 1 4 1 4 8 7 5 5 1 3 4 6 7 8 5 9 5 5 6 4 1 3 3 4 4 12 4 5 7 7 5 1 3 8 3 4 8 11 14 13 14
6 4 5 3 3 2 3 7 6 3 6 3 2 3 5 6 3 6 2 4 5 5 4 4 4 3 5 3 3 6 4 5 4 5 7 8 6 6 5 4 4 5 6 12 13
3 3 3 5 3 2 7 7 8 7 5 7 3 5 4 1 2 3 4 3 3 1 6 3 4 3 1 1 3 3 5 4 4 2 2 6 7 5 2 4 7 10 9 11 12
3 2 2 6 2 5 8 4 3 1 4 2 4 1 4 4 3 4 1 3 2 2 2 3 4 2 0 1 2 6 4 2 4 4 7 7 8 9 3 6 8 10 7 10 11
4 4 2 3 4 8 5 6 4 2 1 2 4 4 3 4 3 2 3 3 3 4 4 4 4 2 4 4 6 1 2 3 3 4 4 6 11 8 7 3 5 7 5 6 9
3 3 1 2 7 1 3 6 3 2 2 2 5 4 5 4 3 1 4 5 6 6 4 4 5 4 8 1 4 3 6 5 6 5 4 2 15 6 7 6 7 6 7 6 5
3 2 1 2 5 2 4 1 2 3 2 2 3 3 2 5 3 4 3 2 8 5 7 5 1 5 4 6 5 3 6 4 2 3 8 7 12 4 6 5 6 6 7 7 8
4 3 6 7 2 7 5 1 3 1 2 3 4 4 3 2 1 3 3 2 8 5 9 6 3 8 8 6 5 2 4 12 7 4 5 18 17 23 16 16 8 8 8 7 7
5 1 4 2 5 4 4 3 4 3 2 2 2 4 7 3 2 4 4 2 5 6 3 5 6 4 13 14 13 17 14 14 18 21 10 21 11 24 11 9 14 9 7 8 8
5 5 3 3 1 4 4 5 7 3 7 4 4 4 7 7 9 8 7 4 6 2 5 1 4 2 7 9 13 18 19 21 25 28 27 31 32 28 26 18 10 13 10 9 9
1 2 5 3 2 4 4 5 6 6 3 4 6 4 7 14 7 7 7 6 7 10 7 6 4 4 9 7 9 11 13 13 9 5 17 17 22 13 13 11 9 10 9 8 11
Wind_Direction
10 6 1 356 352 346 340 339 343 347 354 358 11 357 345 46 45 54 45 337 335 330 334 318 22 350 49 73 58 123 81 228 237 217 261 360 31 311 341 298 294 241 292 297 325
9 3 358 354 348 340 334 329 324 325 336 341 353 356 351 19 71 57 351 343 341 338 342 3 356 352 55 63 44 106 144 220 227 300 312 304 164 306 302 306 288 301 285 305 325
9 4 359 352 345 337 330 322 313 305 302 308 320 273 303 324 70 333 345 338 334 333 270 264 277 94 76 36 55 90 191 242 297 328 11 308 316 345 291 284 248 283 299 315 309
8 3 360 352 346 337 326 320 306 302 245 239 287 336 62 26 148 295 333 335 327 324 5 15 19 67 91 88 18 1 265 22 320 336 325 303 302 300 254 265 283 288 293 317 309
6 2 0 358 352 348 352 348 33 28 114 147 156 106 71 50 10 320 326 325 322 340 39 32 57 71 91 341 342 134 339 335 305 295 295 319 292 287 310 316 321 331 339 337 328
6 4 1 0 357 351 25 42 77 90 100 130 123 96 68 70 280 318 316 326 345 357 354 40 100 100 79 55 57 308 275 300 355 348 358 347 304 342 18 358 346 348 342 337 337
6 5 3 3 1 33 53 71 84 110 61 98 107 86 73 162 0 333 329 296 302 318 55 27 44 72 325 13 9 299 326 346 33 355 21 336 29 80 355 344 336 335 325 322 316
4 5 1 5 8 44 46 46 80 58 42 82 80 75 102 127 289 5 344 321 8 353 90 43 79 93 43 301 30 28 58 360 14 8 360 23 274 347 345 334 327 332 342 331 323
4 3 360 1 6 33 43 49 40 54 34 62 40 84 26 334 358 351 23 341 311 1 42 52 59 65 355 28 40 24 329 338 323 349 350 27 318 326 319 323 330 358 8 18 11
1 4 3 6 355 348 334 323 50 43 359 34 67 55 15 320 329 333 335 352 27 352 23 30 53 66 26 34 59 328 328 291 298 317 360 309 302 324 4 34 16 354 352 7 6
0 5 8 19 23 14 18 14 20 9 32 72 300 100 329 302 348 351 347 342 20 47 65 19 59 41 354 83 157 218 260 290 284 323 356 8 309 40 19 32 11 9 5 357 357
1 3 5 356 27 48 65 71 95 163 84 25 31 42 341 332 5 1 5 62 31 74 53 60 60 315 316 50 343 261 299 307 302 336 329 343 303 283 37 31 21 4 1 2 349
360 5 358 354 59 40 77 74 313 234 81 27 41 35 331 14 43 355 19 40 58 55 43 85 162 299 36 26 360 301 223 307 290 326 332 323 297 329 7 23 8 13 6 360 359
355 3 5 348 50 306 51 327 343 192 82 339 349 5 356 353 60 6 16 83 43 118 100 78 343 342 0 37 359 304 166 311 300 327 321 64 287 295 324 349 4 356 356 353 351
350 359 15 50 140 58 272 318 73 49 65 345 341 292 342 71 296 354 348 33 69 59 149 239 17 340 39 349 331 258 317 287 287 211 336 11 3 264 323 348 348 343 344 346 351
347 356 25 27 52 74 309 164 59 44 257 351 327 357 36 13 33 321 21 33 71 53 47 84 316 301 273 314 280 305 327 350 116 110 36 165 55 284 12 318 327 334 344 343 347
345 52 45 52 134 321 331 57 43 117 341 291 31 30 89 12 17 18 33 29 59 68 18 335 141 325 12 335 329 345 12 358 357 9 244 25 350 248 233 287 302 327 335 338 344
9 106 24 63 311 158 67 55 85 235 215 224 139 92 82 5 33 356 84 40 30 54 77 52 339 17 348 120 220 2 58 121 255 313 302 322 227 257 189 224 287 291 318 337 339
100 15 46 339 351 63 75 64 195 197 163 157 92 77 349 20 109 50 43 150 225 85 120 69 276 327 220 62 111 306 51 190 90 9 316 274 291 301 190 332 349 356 350 340 334
96 77 33 325 4 63 75 166 150 253 131 149 124 99 152 282 77 60 15 223 187 174 129 177 351 195 60 97 59 114 190 107 37 32 298 279 278 246 290 336 331 336 322 329 327
65 69 281 354 50 49 112 206 207 227 162 120 136 115 154 157 142 190 206 257 225 166 95 124 106 286 29 202 175 91 104 61 117 146 202 303 263 220 197 218 279 289 301 303 319
93 56 337 118 53 17 92 182 203 141 63 93 97 113 146 148 133 185 211 214 179 152 162 197 141 263 227 301 355 154 188 143 128 234 224 218 266 238 204 191 219 295 302 288 301
91 208 345 124 111 18 304 46 109 138 171 117 105 108 159 151 65 199 211 212 164 147 166 202 295 338 356 2 2 183 198 176 116 115 213 155 258 224 215 280 348 289 288 293 306
73 42 344 48 85 120 133 196 117 72 97 99 120 73 98 92 178 194 232 229 183 191 171 149 174 194 204 198 129 207 219 197 152 170 212 227 271 270 260 287 284 287 290 273 273
25 261 180 332 3 74 72 145 135 170 9 123 49 170 157 133 36 221 199 300 200 220 214 144 230 202 258 273 263 256 235 212 218 225 210 266 249 266 272 275 282 264 265 274 269
103 122 357 123 314 68 353 218 159 167 140 250 164 200 169 175 187 192 152 188 208 3 135 39 267 121 279 259 258 262 255 230 233 244 246 258 274 273 276 272 249 249 259 266 275
74 27 100 321 34 78 226 185 201 148 240 173 172 129 200 238 204 209 193 188 181 162 180 159 154 49 266 343 307 286 242 199 191 215 219 229 239 268 273 256 233 238 236 250 271